This is the latest recevied weather packets stored in our database for station/object N7MLR. If no packets are shown the sender has not sent any weather packets the latest 10 day(s).
| Time | Temp. | Humidity | Pressure | Rain* | Wind** | Luminosity | Snow |
|---|---|---|---|---|---|---|---|
| 1778088207 | 24.44° C | 79% | 1011.2 hPa | 0 mm | - | 606 W/m² | - |
| 1778087905 | 23.33° C | 80% | 1011.3 hPa | 0 mm | - | 417 W/m² | - |
| 1778087602 | 23.33° C | 82% | 1011.2 hPa | 0 mm | - | 327 W/m² | - |
| 1778087299 | 22.78° C | 83% | 1011.3 hPa | 0 mm | - | 452 W/m² | - |
| 1778086995 | 22.22° C | 84% | 1011.4 hPa | 0 mm | - | 173 W/m² | - |
| 1778086694 | 22.22° C | 84% | 1011.4 hPa | 0 mm | - | 121 W/m² | - |
| 1778086391 | 21.67° C | 85% | 1011.3 hPa | 0 mm | - | 124 W/m² | - |
| 1778086088 | 21.67° C | 85% | 1011.5 hPa | 0 mm | - | 165 W/m² | - |
| 1778085785 | 21.67° C | 85% | 1011.3 hPa | 0 mm | - | 108 W/m² | - |
| 1778085482 | 21.67° C | 85% | 1011.3 hPa | 0 mm | - | 103 W/m² | - |
| 1778085176 | 21.67° C | 86% | 1011.3 hPa | 0 mm | - | 110 W/m² | - |
| 1778084872 | 22.78° C | 85% | 1011.4 hPa | 0 mm | - | 41 W/m² | - |
| 1778084570 | 25° C | 86% | 1011.3 hPa | 0 mm | - | 33 W/m² | - |
| 1778084268 | 25.56° C | 85% | 1011.1 hPa | 0 mm | - | 105 W/m² | - |
| 1778083965 | 25.56° C | 85% | 1011.1 hPa | 0 mm | - | 160 W/m² | - |
| 1778083662 | 25.56° C | 85% | 1011.2 hPa | 0 mm | - | 195 W/m² | - |
| 1778083359 | 25.56° C | 85% | 1011.1 hPa | 0 mm | - | 200 W/m² | - |
| 1778083058 | 25.56° C | 85% | 1011.2 hPa | 0 mm | - | 197 W/m² | - |
| 1778082754 | 25° C | 86% | 1011.2 hPa | 0 mm | - | 212 W/m² | - |
| 1778081621 | 25° C | 88% | 1011.2 hPa | 0 mm | - | 158 W/m² | - |
| 1778081318 | 25° C | 89% | 1011.1 hPa | 0 mm | - | 129 W/m² | - |
| 1778081015 | 24.44° C | 89% | 1010.6 hPa | 0 mm | - | 118 W/m² | - |
| 1778080714 | 24.44° C | 89% | 1010.5 hPa | 0 mm | - | 143 W/m² | - |
| 1778080410 | 25° C | 89% | 1010.3 hPa | 0 mm | - | 135 W/m² | - |
| 1778080107 | 24.44° C | 91% | 1010.6 hPa | 0 mm | - | 133 W/m² | - |
* Rain latest hour (hover to see other rain measurements)
** Current wind speed in m/s (hover to see current wind gust speed)